www.pogodaiklimat.ru

Погода и климат >> Архив погоды >> Россия >> Приморский край >> Пограничный


АРХИВ ПОГОДЫ в Пограничном

Время (UTC), дата Ветер
(напр.,м/с)
 
Видим.   Явления Облачность Т
(С)
Тd
(С)
f
(%)
Тe
(С)
Тes
(С)
Комфортность P
(гПа)
Po
(гПа)
Тmin
(С)
Tmax
(С)
R
(мм)
R24
(мм)
S
(см)
06 17.02 З 7-15
{16}
50 км 4/0
[Ac lent Cc]
+0.6 -17.2 25 -5 -4 1013.4 986.3
09 17.02 З 4
{15}
50 км ясно -0.7 -16.8 28 -5 -5 1014.9 987.6 +1.9
12 17.02 СЗ 2
{12}
20 км ясно -2.3 -16.8 32 -5 -5 1017.9 990.3
15 17.02 З 2 20 км ясно -4.0 -16.2 38 -7 -7 1019.9 992.1
18 17.02 З 4 20 км ясно -4.4 -15.8 41 -10 -10 1020.4 992.6
21 17.02 З 3 20 км ясно -4.3 -16.1 39 -9 -9 1021.0 993.2 -5.2
00 18.02 ЮЗ 4 50 км ясно -1.1 -16.7 29 -6 -4 1021.6 994.1
03 18.02 ЮЗ 3 50 км ясно +4.8 -17.2 19 +3 +8 1020.5 993.6
06 18.02 З 3 50 км ясно +6.6 -17.6 16 +5 +8 1018.1 991.4
09 18.02 ЮЗ 2 50 км ясно +3.3 -16.8 21 +2 +2 1018.2 991.2 +7.1
12 18.02 З 3 20 км 4/0
[Ci fib]
-3.6 -14.6 42 -8 -8 1020.6 992.8
15 18.02 З 3 20 км 10/0
[Ci fib]
-6.1 -14.3 52 -11 -11 1021.6 993.6
18 18.02 ЮЗ 1 20 км 10/0
[As trans Ci fib]
-7.3 -15.4 52 -9 -9 1021.6 993.5
21 18.02 З 3 20 км 10/3 600 м
[Sc As trans Ci fib]
-6.0 -15.1 49 -11 -11 1020.7 992.8 -7.5
00 19.02 З 3 50 км 8/3 600 м
[Sc As trans Ci fib]
-4.1 -14.4 45 -9 -8 1020.8 993.0
03 19.02 СВ 2 50 км 10/0
[As trans Ci fib]
+4.3 -17.8 18 +3 +7 1018.1 991.2
06 19.02 ЮВ 2 50 км 10/0
[As trans Cs]
+4.6 -18.4 17 +3 +5 1015.8 989.0
09 19.02 СВ 3 50 км 10/4 600 м
[Sc As trans Cs]
+2.0 -14.8 28 -1 -1 1015.8 988.7 +5.1
12 19.02 З 2 20 км 10/3 600 м
[Sc As trans Cs]
-1.2 -14.9 34 -4 -4 1016.4 989.0
15 19.02 З 2 20 км 10/3 600 м
[Sc As op]
-0.6 -14.1 35 -3 -3 1017.2 989.8
18 19.02 СЗ 2 20 км 10/5 600 м
[Sc As trans Cs]
-0.1 -11.0 44 -3 -3 1017.9 990.6
21 19.02 З 2 20 км 10/0
[As trans Ci fib]
-4.1 -10.5 61 -8 -8 1018.1 990.4 -4.1
00 20.02 З 1 20 км 10/0
[As trans Cs]
-1.2 -11.7 45 -3 -1 1019.6 992.1 -4.4
03 20.02 СЗ 3 50 км 10/0
[As trans Cs]
+2.3 -14.8 27 -1 +3 1019.5 992.4
06 20.02 С 3 50 км 10/0
[Cs]
+3.8 -15.6 23 +1 +4 1018.5 991.6
09 20.02 З 2 20 км 10/0
[As trans Cs]
+0.2 -12.3 38 -2 -2 1020.4 993.0 +4.2
12 20.02 З 2 20 км 10/0
[Cs]
-2.5 -8.7 62 -6 -6 1022.0 994.4
15 20.02 З 1 20 км 10/0
[Ci fib]
-2.6 -7.7 68 -4 -4 1022.7 995.0
18 20.02 З 2 20 км 10/0
[Cs]
-2.8 -9.4 60 -6 -6 1023.2 995.5
21 20.02 З 2 20 км 6/0
[Ci fib]
-3.5 -10.7 57 -7 -7 1023.1 995.3 -4.4
00 21.02 З 4 20 км ясно 0.0 -10.8 44 -5 -3 1022.7 995.3
03 21.02 З 6-10
{11}
50 км ясно +4.9 -14.5 23 +1 +4 1021.3 994.4
06 21.02 З 4
{11}
50 км ясно +6.5 -15.0 20 +4 +6 1019.3 992.6
09 21.02 ЮЗ 2 50 км 4/0
[Ci fib]
+3.1 -15.3 24 +1 +1 1019.9 992.8 +7.0
12 21.02 З 3 20 км ясно -3.3 -13.5 45 -8 -8 1020.2 992.5
15 21.02 З 2 20 км ясно -3.9 -13.0 49 -7 -7 1020.4 992.7
18 21.02 З 2 20 км ясно -3.7 -13.1 48 -7 -7 1020.7 992.9
21 21.02 З 2 20 км ясно -5.6 -13.3 55 -9 -9 1021.1 993.1 -5.8
00 22.02 З 2 50 км ясно +0.7 -12.8 36 -2 +1 1021.4 994.1 -5.9
03 22.02 З 4 50 км 3/3 600 м
[Cu med, cong]
+5.4 -14.1 23 +3 +6 1020.0 993.2
06 22.02 СЗ 4-10
{12}
50 км 8/8 600 м
[Cb cap]
+5.4 -14.0 23 +3 +3 1017.9 991.1
09 22.02 З 3
{10}
50 км 10/4 600 м
[Cb cap Ci fib]
+3.5 -13.5 28 +1 +1 1018.0 991.1 +7.3
12 22.02 З 2 20 км 3/0
[Ci fib]
-0.2 -14.4 33 -3 -3 1020.6 993.2
15 22.02 СЗ 2 20 км ясно -0.5 -13.7 36 -3 -3 1022.0 994.5
18 22.02 СЗ 2 20 км ясно -2.5 -10.8 53 -6 -6 1023.7 996.0
21 22.02 З 2 20 км 3/0
[Ci fib]
-4.6 -11.7 58 -8 -8 1024.6 996.6 -5.3
00 23.02 З 2 50 км ясно -1.8 -12.2 45 -5 -2 1025.3 997.6 -9.4
03 23.02 СЗ 2 50 км ясно +3.9 -16.2 21 +2 +10 опасность
простуды
1023.2 996.2
06 23.02 З 3 50 км ясно +6.5 -14.9 20 +5 +8 1020.2 993.4
09 23.02 З 2 50 км ясно +2.3 -14.3 28 0 0 1019.3 992.2 +6.6
12 23.02 З 2 20 км ясно -3.2 -13.0 47 -7 -7 1018.1 990.5
15 23.02 ЮЗ 2 20 км ясно +1.6 -14.5 29 -1 -1 1015.3 988.2
18 23.02 В 1 20 км 6/0
[Cs]
-3.3 -13.6 45 -5 -5 1013.8 986.3
21 23.02 Ю 4 20 км 4/0
[Cs]
+0.8 -13.0 35 -3 -3 1011.8 984.7 -4.2
00 24.02 СВ 1 50 км 6/0
[Ci fib]
+1.3 -10.2 42 0 +3 1012.8 985.7
03 24.02 З 4
{11}
50 км 10/0
[Ci sp]
+7.3 -13.3 22 +5 +9 1012.0 985.6

 

Местоположение метеостанции Пограничный (Приморский край, Россия): широта 44.40 долгота 131.30 высота над уровнем моря 211 м.

В архиве по умолчанию представлена погода в Пограничном за последнюю неделю. Архивные данные за месяц целиком и за предыдущие месяцы, начиная с января 2011 года, Вы можете получить, выбрав интересующий диапазон дат из раскрывающегося списка и нажав кнопку "Ввод!".


*Определитесь, кто Вы:
робот инопланетянин человек

Внимание! Время в таблицах - всемирное. Для получения местного времени необходимо прибавить поправку, которая равна 10 ч.

Смотрите также архив погоды в соседних городах и на ближайших метеорологических станциях:

Погода в Суйфэньхэ (Хэйлунцзян, Китай) (12 км)
Погода в Полтавке (Приморский край, Россия) (41 км)
Погода в Хороле (Приморский край, Россия) (56 км)
Погода в Астраханке (Приморский край, Россия) (66 км)
Погода в Тимирязевском (Приморский край, Россия) (75 км)
Погода в Цзиси (Хэйлунцзян, Китай) (102 км)
Погода в Турьем Роге (Приморский край, Россия) (105 км)
Погода в Спасск-Дальнем (Приморский край, Россия) (122 км)
Погода в Барабаше (Приморский край, Россия) (134 км)
Погода в Муданьцзяне (Хэйлунцзян, Китай) (136 км)

Пояснения к столбцам:

Ветер - указаны скорость ветра в м/с - средняя за 10 мин, порывы в срок и между сроками (в фигурных скобках) и направление, откуда дует ветер: С - северный, СВ - северо-восточный, В - восточный, ЮВ - юго-восточный, Ю - южный, ЮЗ - юго-западный, З - западный, СЗ - северо-западный.
Видимость - горизонтальная дальность видимости в метрах или километрах. При видимости от 1 до 10 км при отсутствии осадков обычно наблюдается дымка, при ухудшении видимости до 1 км и менее - туман. В сухую погоду видимость может ухудшаться дымом, пылью или мглою.
Явления - указаны атмосферные явления, наблюдавшиеся в срок или в последний час перед сроком; фигурными скобками обозначены явления, наблюдавшиеся между сроками (за 1-3 часа до срока); квадратными скобками обозначены град или гололедные отложения с указанием их диаметра в мм.
Облачность - указаны через наклонную черту общая и нижняя облачность в баллах и высота нижней границы облаков в метрах; квадратными скобками обозначены формы облаков: Ci - перистые, Cs - перисто-слоистые, Cc - перисто-кучевые, Ac - высококучевые, As - высокослоистые, Sc - слоисто-кучевые, Ns - слоисто-дождевые, Cu - кучевые, Cb - кучево-дождевые. Подробнее классификацию облаков см. в Атласе облаков (PDF).
T - Температура воздуха - температура, измеренная на высоте 2 м над землей.
Td - Температура точки росы - температура, при понижении до которой содержащийся в воздухе водяной пар достигнет насыщения.
f - Относительная влажность воздуха - влажноcть воздуха, измеренная на высоте 2 м над землей.
Te - Эффективная температура - температура, которую ощущает одетый по сезону человек в тени. Характеристика душности погоды. При расчете учитывается влияние влажности воздуха и скорости ветра на теплоощущения человека.
Tes - Эффективная температура на солнце - температура, которую ощущает человек, с поправкой на солнечный нагрев. Характеристика знойности погоды. Зависит от высоты солнца над горизонтом, облачности и скорости ветра. Ночью, в пасмурную погоду, а также при ветре 12 м/с и более поправка равна нулю.
P - Атмосферное давление - приведенное к уровню моря атмосферное давление.
Po - Атмосферное давление - измеренное на уровне метеостанции атмосферное давление.
Tmin - Минимальная температура - минимум температуры воздуха на высоте 2 м над землей.
Tmax - Максимальная температура - максимум температуры воздуха на высоте 2 м над землей.
R - Количество осадков - Количество выпавших осадков за период времени, мм. При наведении курсора мыши на число - период времени, за который выпало указанное количество осадков.
R24 - Количество осадков - Количество выпавших осадков за 24 часа, мм.
S - Снежный покров - Высота снежного покрова, см. При наведении курсора мыши на число - состояние снежного покрова и степень покрытия местности в баллах.